Location: Ferchesar
(52.6477°N, 12.4298°E)
Time: 11:35:45
(UTC+01:00)

Transit 2A - Visible Passes

Search period start: 01 March 2021 00:00
Search period end: 11 March 2021 00:00
Orbit: 601 x 958 km, 66.7° (Epoch: 28 February)

Date Brightness Start Highest point End Pass type
(mag) Time Alt. Az. Time Alt. Az. Time Alt. Az.
01 Mar 7.0 18:28:32 10° SSE 18:32:43 24° ESE 18:36:36 10° ENE visible
01 Mar 6.0 20:10:19 10° SW 20:15:33 71° NW 20:18:31 23° NNE visible
01 Mar 8.0 21:55:33 10° WNW 21:59:03 22° NNW 21:59:03 22° NNW visible
02 Mar 5.8 19:36:05 10° SW 19:41:21 87° SE 19:45:55 11° NE visible
02 Mar 7.7 21:20:48 10° W 21:25:01 26° NNW 21:26:27 23° N visible
03 Mar 5.8 19:01:59 10° SSW 19:07:11 65° SE 19:11:55 10° NE visible
03 Mar 7.4 20:46:08 10° W 20:50:39 32° NW 20:53:41 16° NNE visible
03 Mar 8.5 22:32:22 10° NW 22:34:12 14° NNW 22:34:12 14° NNW visible
04 Mar 6.2 18:28:02 10° SSW 18:33:04 47° ESE 18:37:39 10° NE visible
04 Mar 7.1 20:11:32 10° WSW 20:16:19 40° NW 20:20:44 10° NNE visible
04 Mar 8.2 21:57:35 10° NW 22:00:40 17° NNW 22:01:18 16° N visible
05 Mar 6.6 19:37:02 10° WSW 19:42:02 51° NW 19:46:37 10° NNE visible
05 Mar 8.1 21:22:47 10° WNW 21:26:10 19° NNW 21:28:19 14° NNE visible
05 Mar 8.8 23:08:34 10° NNW 23:08:49 11° NNW 23:08:49 11° NNW visible
06 Mar 6.2 19:02:39 10° SW 19:07:48 67° NW 19:12:29 10° NE visible
06 Mar 8.0 20:47:59 10° WNW 20:51:43 21° NNW 20:55:14 10° NNE visible
06 Mar 8.5 22:34:06 10° NNW 22:35:44 13° NNW 22:35:44 13° NNW visible
07 Mar 5.9 18:28:24 10° SW 18:33:36 89° NW 18:38:19 10° NE visible
07 Mar 7.8 20:13:13 10° W 20:17:18 25° NNW 20:21:08 10° NNE visible
07 Mar 8.3 21:59:30 10° NW 22:02:01 14° N 22:02:36 14° N visible
08 Mar 7.5 19:38:32 10° W 19:42:56 30° NW 19:47:01 10° NNE visible
08 Mar 8.2 21:24:48 10° NW 21:27:29 15° N 21:29:25 12° NNE visible
08 Mar 8.7 23:09:28 10° NNW 23:09:54 11° NNW 23:09:54 11° NNW visible
09 Mar 7.2 19:03:55 10° WSW 19:08:35 38° NW 19:12:55 10° NNE visible
09 Mar 8.2 20:50:01 10° NW 20:52:58 16° NNW 20:55:48 10° NNE visible
09 Mar 8.4 22:35:14 10° NNW 22:36:41 14° N 22:36:41 14° N visible
10 Mar 8.1 20:15:13 10° WNW 20:18:28 18° NNW 20:21:36 10° NNE visible
10 Mar 8.2 22:00:54 10° NNW 22:03:24 14° N 22:03:26 14° N visible
